カタログに戻る

GONETS D1 4

運用中通信PO
NORAD 24728·PAYLOAD·🇷🇺 Russia

打ち上げ Feb 14, 1997 から Plesetsk Cosmodrome

Loading…

次のパス (今後24時間)

TLE

最新Source: Space-Track

元期: Sep 14, 2026, 04:53 UTC

1 24728U 97006D   26257.20348887  .00000029  00000-0  10053-3 0  9990
2 24728  82.6086 179.5276 0007816 347.3271  12.7624 12.63923103364455

AllMySatでGONETS D1 4をリアルタイム追跡

Download on the App Store